Погода в Красной Тыми

Россия / Сахалинская область     50°47′14″N   142°40′26″E
темп.,
°C
ветер,
м/с
пор.,
м/с
влажн.,
%
обл.,
%
осадки,
мм/ч
давл.,
гПа
погр.,
м
22 января, пт
пт2223:00−18сз2398100 0.8 1012102
02:00−20сз1299100 0.2 101448
05:00−21зсз1399100 0.3 101493
08:00−22сз1299100 0.1 101458
11:00−21сз2594100 0.2 1015484
14:00−19сз4688100 0.2 10151031
17:00−20сз4692100 0.3 1015959
20:00−21сз2898100 0.2 1017494
23 января, сб
сб2323:00−23с21097100 0.3 1018714
02:00−25ссв1288100 0.0 102058
05:00−26с1196100 0.1 102120
08:00−27с009999 0.0 102219
11:00−24ююв119577 0.0 102368
14:00−19юз028015 0.0 1022489
17:00−20з118211 0.0 102322
20:00−26ююв12910 0.0 102419
24 января, вс
вс2423:00−26юв22900 0.0 102530
02:00−26юв23850 0.0 102537
05:00−25юв248216 0.0 102477
08:00−22ююв2581100 0.0 1023121
11:00−19ююв2395100 0.1 1024166
14:00−15юз1187100 0.1 1024344
17:00−16ссз2390100 0.1 1025482
20:00−21с229763 0.0 102727
25 января, пн
пн2523:00−23ссв129151 0.0 102820
02:00−24с118323 0.0 102920
05:00−24с128650 0.0 103020
08:00−25с118799 0.0 103120
11:00−22с128895 0.0 1033140
14:00−20ссз48730 0.0 10321011
17:00−21ссз36810 0.0 1034750
20:00−27ссв12906 0.0 103519
26 января, вт
вт2623:00−29ссв11873 0.0 103619
02:00−29в118528 0.0 103619
05:00−29юв118249 0.0 103519
08:00−26ю128068 0.0 103457
11:00−24ююв357984 0.0 1032192
14:00−21ююв3683100 0.0 1029296
17:00−20ююв4896100 0.3 1026352
20:00−20ююв4997100 0.4 1024401